Abilene, TX

9:18 AM CDT on October 22, 2017 (GMT -0500)
Abilene Regional

Weather History for KABI - April, 2015

Change the Weather History Date:

Sunday, April 12, 2015

  Actual Average Record
Temperature  
Mean Temperature 74 °F 64 °F  
Max Temperature 84 °F 77 °F 98 °F (1972)
Min Temperature 63 °F 51 °F 28 °F (1997)
Degree Days  
Heating Degree Days 0 4  
Month to date heating degree days 21 63  
Since 1 July heating degree days 2424 2494  
Cooling Degree Days 9 3  
Month to date cooling degree days 78 28  
Year to date cooling degree days 129 62  
Growing Degree Days 24 (Base 50)    
Moisture  
Dew Point 61 °F    
Average Humidity 63    
Maximum Humidity 81    
Minimum Humidity 44    
Precipitation  
Precipitation 0.07 in 0.05 in 1.85 in (1954)
Month to date precipitation 0.13 0.55  
Year to date precipitation 5.24 4.67  
Sea Level Pressure  
Sea Level Pressure 29.83 in    
Wind  
Wind Speed 14 mph (South)    
Max Wind Speed 28 mph    
Max Gust Speed 33 mph    
Visibility 10 miles    
Events Rain    
T = Trace of Precipitation, MM = Missing Value Source: NWS Daily Summary

Daily Weather History Graph

Daily Weather History Graph

Search for Another Location

Airport or City:

Trip Planner

Search our weather history database for the weather conditions in past years. The results will help you decide how hot, cold, wet, or windy it might be!

Date:

Astronomy

Apr. 12, 2015 Rise Set
Actual Time 7:13 AM CDT 8:06 PM CDT
Civil Twilight 6:48 AM CDT 8:31 PM CDT
Nautical Twilight 6:18 AM CDT 9:00 PM CDT
Astronomical Twilight 5:48 AM CDT 9:31 PM CDT
Moon 2:42 AM CDT (4/12) 1:42 PM CDT (4/12)
Length of Visible Light 13h 43m
Length of Day
12h 52m
Last Quarter, 44% of the Moon is Illuminated
Apr 12
Last Quarter
Apr 18
New
Apr 25
First Quarter
May 3
Full
May 11
Last Quarter

Hourly Weather History & Observations

Time (CDT) Temp. Heat Index Dew Point Humidity Pressure Visibility Wind Dir Wind Speed Gust Speed Precip Events Conditions
12:52 AM 66.0 °F - 61.0 °F 84% 29.89 in 10.0 mi South 17.3 mph - N/A   Mostly Cloudy
1:52 AM 66.9 °F - 61.0 °F 81% 29.90 in 10.0 mi South 12.7 mph - N/A   Overcast
2:52 AM 66.0 °F - 61.0 °F 84% 29.89 in 10.0 mi SSE 12.7 mph - N/A   Overcast
3:52 AM 66.9 °F - 61.0 °F 81% 29.87 in 10.0 mi SSE 16.1 mph 24.2 mph N/A   Overcast
4:52 AM 66.9 °F - 61.0 °F 81% 29.86 in 10.0 mi South 11.5 mph - N/A   Overcast
5:52 AM 66.0 °F - 61.0 °F 84% 29.86 in 10.0 mi SSE 12.7 mph - N/A   Overcast
6:26 AM 66.0 °F - 61.0 °F 84% 29.92 in 10.0 mi SSE 12.7 mph - N/A   Overcast
6:52 AM 66.0 °F - 61.0 °F 84% 29.87 in 10.0 mi SSE 10.4 mph - N/A   Overcast
7:44 AM 66.0 °F - 61.0 °F 84% 29.93 in 10.0 mi South 10.4 mph - N/A   Overcast
7:52 AM 66.0 °F - 61.0 °F 84% 29.88 in 10.0 mi South 10.4 mph - N/A   Overcast
8:11 AM 66.0 °F - 62.1 °F 87% 29.93 in 10.0 mi South 11.5 mph - N/A   Overcast
8:21 AM 66.9 °F - 62.1 °F 84% 29.93 in 10.0 mi South 13.8 mph - N/A   Overcast
8:45 AM 66.9 °F - 62.1 °F 84% 29.92 in 10.0 mi South 13.8 mph - N/A   Overcast
8:52 AM 68.0 °F - 62.1 °F 81% 29.87 in 10.0 mi South 13.8 mph - N/A   Overcast
9:52 AM 71.1 °F - 62.1 °F 73% 29.86 in 10.0 mi South 15.0 mph - N/A   Overcast
10:52 AM 73.0 °F - 61.0 °F 66% 29.85 in 10.0 mi South 17.3 mph - N/A   Overcast
11:52 AM 77.0 °F - 62.1 °F 60% 29.83 in 10.0 mi SSW 23.0 mph 31.1 mph N/A   Mostly Cloudy
12:36 PM 77.0 °F - 61.0 °F 58% 29.88 in 10.0 mi South 18.4 mph 27.6 mph N/A   Mostly Cloudy
12:52 PM 79.0 °F - 61.0 °F 54% 29.81 in 10.0 mi South 23.0 mph 29.9 mph N/A   Mostly Cloudy
1:52 PM 79.0 °F - 62.1 °F 56% 29.78 in 10.0 mi South 17.3 mph 24.2 mph N/A   Mostly Cloudy
2:52 PM 82.9 °F 83.3 °F 61.0 °F 47% 29.75 in 10.0 mi South 15.0 mph 25.3 mph N/A   Scattered Clouds
3:52 PM 84.0 °F 84.4 °F 61.0 °F 46% 29.72 in 10.0 mi SSE 18.4 mph - N/A   Scattered Clouds
4:52 PM 82.9 °F 83.3 °F 61.0 °F 47% 29.69 in 10.0 mi SSE 10.4 mph 21.9 mph N/A   Clear
5:52 PM 82.9 °F 83.3 °F 61.0 °F 47% 29.69 in 10.0 mi SSE 15.0 mph - N/A   Partly Cloudy
6:52 PM 80.1 °F 81.1 °F 61.0 °F 52% 29.70 in 10.0 mi SE 12.7 mph - N/A   Clear
7:52 PM 78.1 °F - 61.0 °F 56% 29.70 in 10.0 mi SSE 16.1 mph - N/A   Clear
8:52 PM 75.0 °F - 63.0 °F 66% 29.72 in 10.0 mi SSE 16.1 mph 26.5 mph N/A   Clear
9:52 PM 73.9 °F - 63.0 °F 68% 29.75 in 10.0 mi SSE 19.6 mph 26.5 mph N/A   Clear
10:19 PM 69.1 °F - 57.9 °F 68% 29.85 in 10.0 mi SW 18.4 mph 33.4 mph 0.00 in Rain Light Rain
10:52 PM 64.0 °F - 64.0 °F 100% 29.81 in 10.0 mi South 3.5 mph - 0.05 in Rain Light Rain
11:52 PM 64.0 °F - 64.0 °F 100% 29.78 in 10.0 mi South 4.6 mph - 0.02 in   Mostly Cloudy